Richmond, VA

2:49 AM EST on December 10, 2019 (GMT -0500)
Richmond International

Weather History for KRIC - September, 2019

Change the Weather History Date:

Tuesday, September 17, 2019

  Actual Average Record
Temperature  
Mean Temperature 72 °F 70 °F  
Max Temperature 81 °F 81 °F 97 °F (1991)
Min Temperature 64 °F 60 °F 40 °F (1966)
Degree Days  
Heating Degree Days 0 1  
Month to date heating degree days 0 4  
Since 1 July heating degree days 0 5  
Cooling Degree Days 8 6  
Month to date cooling degree days 222 141  
Year to date cooling degree days 1844 1448  
Growing Degree Days 22 (Base 50)    
Moisture  
Dew Point 65 °F    
Average Humidity 76    
Maximum Humidity 93    
Minimum Humidity 54    
Precipitation  
Precipitation T in 0.14 in 2.89 in (1945)
Month to date precipitation 0.39 2.44  
Year to date precipitation 33.12 32.43  
Snow  
Snow 0.00 in 0.00 in 0.00 in (2002)
Month to date snowfall 0.0 0.0  
Since 1 July snowfall 0.0 0.0  
Snow Depth 0.00 in    
Sea Level Pressure  
Sea Level Pressure 30.06 in    
Wind  
Wind Speed 6 mph ()    
Max Wind Speed 18 mph    
Max Gust Speed 22 mph    
Visibility 10.0 miles    
Events Rain    
T = Trace of Precipitation, MM = Missing Value Source: Averaged Metar Reports

Daily Weather History Graph

Daily Weather History Graph

Search for Another Location

Airport or City:

Astronomy

Sep. 17, 2019 Rise Set
Actual Time 6:52 AM EDT 7:14 PM EDT
Civil Twilight 6:26 AM EDT 7:40 PM EDT
Nautical Twilight 5:55 AM EDT 8:11 PM EDT
Astronomical Twilight 5:24 AM EDT 8:42 PM EDT
Moon 9:20 PM EDT (9/17) 9:52 AM EDT (9/17)
Length of Visible Light 13h 13m
Length of Day
12h 21m
Waning Gibbous, 89% of the Moon is Illuminated
Sep 17
Waning Gibbous
Sep 21
Last Quarter
Sep 28
New
Oct 5
First Quarter
Oct 13
Full

Hourly Weather History & Observations

Time (EDT) Temp. Heat Index Dew Point Humidity Pressure Visibility Wind Dir Wind Speed Gust Speed Precip Events Conditions
1:54 AM 71.1 °F - 66.0 °F 84% 29.99 in 10.0 mi Calm Calm - N/A   Scattered Clouds
2:54 AM 69.1 °F - 66.0 °F 90% 29.99 in 10.0 mi Calm Calm - N/A   Partly Cloudy
3:54 AM 69.1 °F - 66.0 °F 90% 29.98 in 10.0 mi Calm Calm - N/A   Scattered Clouds
4:54 AM 68.0 °F - 66.0 °F 93% 29.99 in 10.0 mi NNE 4.6 mph - N/A   Mostly Cloudy
5:54 AM 69.1 °F - 66.9 °F 93% 29.99 in 10.0 mi NNE 4.6 mph - N/A   Mostly Cloudy
6:54 AM 69.1 °F - 66.0 °F 90% 30.01 in 10.0 mi ENE 4.6 mph - N/A   Scattered Clouds
7:54 AM 70.0 °F - 66.9 °F 90% 30.03 in 10.0 mi ENE 4.6 mph - N/A   Scattered Clouds
8:54 AM 75.0 °F - 69.1 °F 82% 30.04 in 10.0 mi ENE 5.8 mph - N/A   Mostly Cloudy
9:54 AM 78.1 °F - 68.0 °F 71% 30.06 in 10.0 mi ENE 9.2 mph - N/A   Mostly Cloudy
10:20 AM 78.1 °F - 68.0 °F 71% 30.05 in 10.0 mi East 11.5 mph - N/A   Overcast
10:54 AM 79.0 °F - 69.1 °F 72% 30.07 in 10.0 mi ENE 11.5 mph - N/A   Mostly Cloudy
11:54 AM 77.0 °F - 68.0 °F 74% 30.08 in 10.0 mi ENE 16.1 mph 21.9 mph 0.00 in Rain Light Rain
12:37 PM 77.0 °F - 68.0 °F 74% 30.07 in 10.0 mi ENE 15.0 mph - 0.00 in   Mostly Cloudy
12:54 PM 77.0 °F - 68.0 °F 74% 30.08 in 10.0 mi ENE 13.8 mph - 0.00 in   Mostly Cloudy
1:06 PM 75.9 °F - 66.9 °F 74% 30.07 in 10.0 mi ENE 12.7 mph 20.7 mph N/A   Overcast
1:30 PM 77.0 °F - 66.0 °F 69% 30.06 in 10.0 mi ENE 15.0 mph - N/A   Overcast
1:54 PM 77.0 °F - 66.9 °F 71% 30.08 in 10.0 mi NE 10.4 mph - N/A   Overcast
2:54 PM 79.0 °F - 62.1 °F 56% 30.07 in 10.0 mi ENE 10.4 mph - N/A   Mostly Cloudy
3:54 PM 80.1 °F 81.2 °F 62.1 °F 54% 30.06 in 10.0 mi NE 12.7 mph 19.6 mph N/A   Mostly Cloudy
4:54 PM 77.0 °F - 62.1 °F 60% 30.06 in 10.0 mi NE 11.5 mph - N/A   Overcast
5:54 PM 75.9 °F - 63.0 °F 64% 30.08 in 10.0 mi NE 9.2 mph - N/A   Overcast
6:54 PM 73.9 °F - 63.0 °F 68% 30.08 in 10.0 mi ENE 6.9 mph - N/A   Overcast
7:54 PM 73.0 °F - 64.0 °F 73% 30.09 in 10.0 mi East 4.6 mph - N/A   Mostly Cloudy
8:54 PM 72.0 °F - 63.0 °F 73% 30.11 in 10.0 mi East 6.9 mph - N/A   Overcast
9:54 PM 69.1 °F - 62.1 °F 78% 30.11 in 10.0 mi SE 3.5 mph - N/A   Scattered Clouds
10:54 PM 66.9 °F - 62.1 °F 84% 30.12 in 10.0 mi Calm Calm - N/A   Partly Cloudy
11:54 PM 64.9 °F - 62.1 °F 90% 30.12 in 10.0 mi NE 4.6 mph - N/A   Scattered Clouds